Frankfort, MI

4:26 AM EST on February 23, 2017 (GMT -0500)
Frankfort

Weather History for KFKS - January, 2013

Change the Weather History Date:

Wednesday, January 23, 2013

  Actual Average (KMBL) Record (KMBL)
Temperature  
Mean Temperature 13 °F -  
Max Temperature 17 °F 33 °F 50 °F (1989)
Min Temperature 9 °F 20 °F -5 °F (1963)
Degree Days  
Heating Degree Days 52    
Moisture  
Dew Point 5 °F    
Average Humidity 72    
Maximum Humidity 82    
Minimum Humidity 59    
Precipitation  
Precipitation 0.00 in - - ()
Sea Level Pressure  
Sea Level Pressure 30.11 in    
Wind  
Wind Speed 10 mph (WNW)    
Max Wind Speed 22 mph    
Max Gust Speed 34 mph    
Visibility 5 miles    
Events Snow    
Averages and records for this station are not official NWS values.
T = Trace of Precipitation, MM = Missing Value Source: NWS Daily Summary

Daily Weather History Graph

Daily Weather History Graph

Search for Another Location

Airport or City:

Trip Planner

Search our weather history database for the weather conditions in past years. The results will help you decide how hot, cold, wet, or windy it might be!

Date:

Astronomy

Jan. 23, 2013 Rise Set
Actual Time 8:12 AM EST 5:41 PM EST
Civil Twilight 7:40 AM EST 6:13 PM EST
Nautical Twilight 7:05 AM EST 6:48 PM EST
Astronomical Twilight 6:30 AM EST 7:23 PM EST
Moon 2:49 PM EST 5:25 AM EST
Length of Visible Light 10h 32m
Length of Day
9h 29m
Waxing Gibbous, 89% of the Moon is Illuminated
Jan 23
Waxing Gibbous
Jan 26
Full
Feb 3
Last Quarter
Feb 10
New
Feb 17
First Quarter

Hourly Weather History & Observations

Time (EST) Temp. Windchill Dew Point Humidity Pressure Visibility Wind Dir Wind Speed Gust Speed Precip Events Conditions
12:12 AM 9.1 °F 0.8 °F 0.3 °F 67% 30.22 in 10.0 mi NW 4.6 mph - N/A   Overcast
12:33 AM 9.5 °F 1.2 °F 0.3 °F 66% 30.22 in 10.0 mi NW 4.6 mph - N/A   Overcast
12:53 AM 9.5 °F -3.5 °F 1.4 °F 70% 30.22 in 10.0 mi WNW 9.2 mph - N/A   Overcast
1:13 AM 9.9 °F -2.2 °F 2.1 °F 71% 30.21 in 10.0 mi WNW 8.1 mph - N/A Snow Light Snow
1:33 AM 9.9 °F -3.1 °F 0.5 °F 66% 30.20 in 10.0 mi West 9.2 mph - N/A   Overcast
1:53 AM 10.0 °F -1.9 °F 0.7 °F 66% 30.20 in 10.0 mi West 8.1 mph - N/A   Overcast
2:13 AM 10.2 °F 2.0 °F 0.5 °F 65% 30.20 in 10.0 mi WNW 4.6 mph 9.2 mph N/A   Overcast
2:33 AM 10.6 °F -0.2 °F 1.6 °F 67% 30.20 in 10.0 mi West 6.9 mph - N/A   Overcast
2:53 AM 10.9 °F -4.7 °F 0.3 °F 62% 30.19 in 10.0 mi West 13.8 mph 17.3 mph N/A   Overcast
3:34 AM 11.1 °F 1.7 °F 4.1 °F 73% 30.18 in 4.0 mi West 5.8 mph 19.6 mph N/A Snow Light Snow
4:54 AM 10.8 °F -1.1 °F 3.6 °F 73% 30.16 in 4.0 mi West 8.1 mph 18.4 mph N/A Snow Light Snow
5:54 AM 9.9 °F -6.7 °F 3.2 °F 74% 30.16 in 5.0 mi West 15.0 mph 21.9 mph N/A Snow Light Snow
7:15 AM 9.0 °F -5.9 °F 1.9 °F 73% 30.15 in 5.0 mi WNW 11.5 mph 19.6 mph N/A Snow Light Snow
7:35 AM 9.0 °F -7.3 °F 2.8 °F 76% 30.15 in 4.0 mi WNW 13.8 mph 19.6 mph N/A Snow Light Snow
7:55 AM 9.1 °F -7.7 °F 3.0 °F 76% 30.15 in 4.0 mi WNW 15.0 mph 23.0 mph N/A Snow Light Snow
8:15 AM 9.5 °F -6.6 °F 2.5 °F 73% 30.15 in 5.0 mi West 13.8 mph 18.4 mph N/A Snow Light Snow
8:55 AM 10.2 °F -0.6 °F 3.7 °F 75% 30.13 in 2.5 mi West 6.9 mph - N/A Snow Light Snow
9:16 AM 10.4 °F -2.4 °F 3.2 °F 73% 30.13 in 4.0 mi West 9.2 mph 18.4 mph N/A Snow Light Snow
9:36 AM 10.9 °F -3.4 °F 3.2 °F 71% 30.13 in 5.0 mi West 11.5 mph - N/A Snow Light Snow
9:56 AM 11.3 °F -0.4 °F 3.9 °F 72% 30.12 in 5.0 mi West 8.1 mph - N/A Snow Light Snow
10:16 AM 11.3 °F -3.6 °F 3.7 °F 72% 30.12 in 5.0 mi West 12.7 mph 18.4 mph N/A Snow Light Snow
10:36 AM 11.3 °F -2.9 °F 3.0 °F 69% 30.13 in 7.0 mi West 11.5 mph 17.3 mph N/A   Overcast
10:56 AM 11.7 °F -3.2 °F 3.0 °F 68% 30.13 in 10.0 mi West 12.7 mph 17.3 mph N/A Snow Light Snow
11:16 AM 11.7 °F -2.5 °F 2.8 °F 68% 30.12 in 7.0 mi WSW 11.5 mph 20.7 mph N/A Snow Light Snow
11:31 AM 12.2 °F 1.7 °F 3.4 °F 68% 30.12 in 7.0 mi West 6.9 mph - N/A Snow Light Snow
11:51 AM 12.9 °F -0.9 °F 4.5 °F 69% 30.11 in 5.0 mi WNW 11.5 mph - N/A Snow Light Snow
12:12 PM 12.9 °F -0.2 °F 4.1 °F 68% 30.10 in 5.0 mi West 10.4 mph 16.1 mph N/A   Haze
12:32 PM 12.7 °F 0.4 °F 4.5 °F 70% 30.10 in 3.0 mi West 9.2 mph - N/A   Haze
12:52 PM 12.9 °F 0.7 °F 5.0 °F 71% 30.09 in 5.0 mi West 9.2 mph 16.1 mph N/A Snow Light Snow
1:12 PM 12.9 °F -0.2 °F 3.9 °F 67% 30.08 in 10.0 mi West 10.4 mph 18.4 mph N/A   Overcast
1:32 PM 13.1 °F 0.1 °F 4.1 °F 67% 30.07 in 7.0 mi West 10.4 mph 18.4 mph N/A   Overcast
1:52 PM 13.1 °F 1.8 °F 2.7 °F 63% 30.06 in 10.0 mi West 8.1 mph - N/A   Overcast
2:12 PM 13.3 °F 1.1 °F 3.4 °F 65% 30.04 in 10.0 mi West 9.2 mph - N/A   Overcast
2:32 PM 13.8 °F 1.8 °F 5.9 °F 71% 30.04 in 7.0 mi West 9.2 mph 16.1 mph N/A   Overcast
2:52 PM 14.2 °F 0.7 °F 6.1 °F 70% 30.03 in 7.0 mi WNW 11.5 mph 16.1 mph N/A   Overcast
3:12 PM 14.4 °F 0.9 °F 7.2 °F 73% 30.02 in 3.0 mi WNW 11.5 mph 18.4 mph N/A Snow Light Snow
3:33 PM 14.4 °F 4.3 °F 8.6 °F 78% 30.02 in 1.0 mi West 6.9 mph 18.4 mph N/A Snow Light Snow
3:53 PM 14.0 °F 2.0 °F 8.6 °F 79% 30.03 in 1.0 mi WNW 9.2 mph 16.1 mph N/A Snow Light Snow
4:13 PM 14.4 °F 0.2 °F 8.4 °F 77% 30.03 in 1.2 mi WNW 12.7 mph - N/A Snow Light Snow
4:33 PM 14.4 °F 0.2 °F 9.3 °F 80% 30.03 in 0.8 mi WNW 12.7 mph 19.6 mph N/A Snow Light Snow
4:53 PM 14.7 °F 0.7 °F 8.2 °F 75% 30.03 in 2.0 mi WNW 12.7 mph 16.1 mph N/A Snow Light Snow
5:13 PM 14.5 °F 2.7 °F 9.1 °F 79% 30.03 in 1.2 mi WNW 9.2 mph 16.1 mph N/A Snow Light Snow
5:33 PM 14.7 °F 0.7 °F 9.3 °F 79% 30.04 in 2.0 mi NW 12.7 mph - N/A Snow Light Snow
5:53 PM 14.9 °F 2.3 °F 9.3 °F 79% 30.04 in 2.5 mi NW 10.4 mph 13.8 mph N/A Snow Light Snow
6:13 PM 14.7 °F -1.1 °F 8.6 °F 77% 30.05 in 3.0 mi NW 16.1 mph - N/A Snow Light Snow
6:34 PM 14.2 °F 0.7 °F 9.3 °F 81% 30.05 in 1.5 mi NW 11.5 mph 21.9 mph N/A Snow Light Snow
6:54 PM 14.0 °F 1.2 °F 9.3 °F 82% 30.06 in 1.2 mi NNW 10.4 mph 24.2 mph N/A Snow Light Snow
7:14 PM 14.0 °F -0.8 °F 8.8 °F 80% 30.07 in 1.5 mi NNW 13.8 mph 25.3 mph N/A Snow Light Snow
7:34 PM 14.0 °F -0.2 °F 9.1 °F 81% 30.08 in 1.2 mi NW 12.7 mph 18.4 mph N/A Snow Light Snow
7:54 PM 14.5 °F -0.7 °F 9.9 °F 82% 30.08 in 1.2 mi NW 15.0 mph 21.9 mph N/A Snow Light Snow
8:14 PM 14.9 °F 0.9 °F 7.0 °F 71% 30.09 in 4.0 mi NNW 12.7 mph 23.0 mph N/A Snow Light Snow
8:34 PM 14.9 °F 0.3 °F 7.3 °F 72% 30.10 in 4.0 mi NNW 13.8 mph 26.5 mph N/A Snow Light Snow
8:54 PM 14.7 °F 0.1 °F 8.4 °F 76% 30.11 in 1.8 mi NW 13.8 mph 21.9 mph N/A Snow Light Snow
9:14 PM 14.9 °F -0.8 °F 8.2 °F 75% 30.13 in 1.2 mi NNW 16.1 mph 27.6 mph N/A Snow Light Snow
9:35 PM 15.6 °F -2.2 °F 5.0 °F 63% 30.13 in 3.0 mi NNW 21.9 mph 34.5 mph N/A Snow Light Snow
9:55 PM 15.8 °F 1.4 °F 7.3 °F 69% 30.14 in 3.0 mi NNW 13.8 mph 33.4 mph N/A Snow Light Snow
10:15 PM 16.3 °F 2.1 °F 10.6 °F 78% 30.13 in 1.5 mi NNW 13.8 mph 21.9 mph N/A Snow Light Snow
10:35 PM 16.9 °F 3.4 °F 11.7 °F 80% 30.14 in 2.0 mi NNW 12.7 mph 26.5 mph N/A Snow Light Snow
10:55 PM 16.9 °F 1.7 °F 12.4 °F 82% 30.14 in 1.2 mi NNW 16.1 mph 31.1 mph N/A Snow Light Snow
11:15 PM 17.2 °F 2.7 °F 10.0 °F 73% 30.15 in 1.0 mi NNW 15.0 mph 27.6 mph N/A Snow Light Snow
11:35 PM 17.2 °F 1.7 °F 5.0 °F 59% 30.16 in 4.0 mi North 17.3 mph 29.9 mph N/A   Haze
11:55 PM 16.7 °F 1.0 °F 6.1 °F 63% 30.17 in 10.0 mi North 17.3 mph 29.9 mph N/A   Scattered Clouds